[[{"header":{"parameterUnit":"m.s-1","parameterCategory":1,"la1":30.2991,"la2":30.254,"lo1":-89.0895,"lo2":-89.0444,"dy":0.0017,"dx":0.0017,"nx":28,"ny":28,"refTime":"2025-07-24T09:00:00:Z","depth":0,"parameterNumber":2,"parameterNumberName":"U-component_of_WINDS"},"data":[0,0,0,0,0,0,0,0,0,0,0,0,0,0,0,0,0,0,0,0,0,0,0,0,0,0,0,0,0,0,0,0,0,0,0,0,0,0,0,0,0,0,0,0,0,0,0,0,0,0,0,0,0,0,0,0,0,0,-1.5163,-1.5163,0,-1.5158,-1.5158,-1.5158,-1.5116,-1.5115,-1.5114,-1.5113,-1.5109,-1.511,-1.5111,0,0,0,0,0,0,0,0,0,0,0,0,0,-1.514,-1.514,-1.5163,-1.5163,-1.5163,-1.5158,-1.5158,-1.5158,-1.5116,-1.5115,-1.5114,-1.5113,-1.5109,-1.511,-1.5111,0,0,0,0,0,0,0,0,0,0,0,0,0,-1.5144,-1.5141,-1.5163,-1.5142,-1.514,-1.5158,-1.5158,-1.5158,-1.5117,-1.5115,-1.5114,-1.5112,-1.5108,-1.511,-1.5111,-1.5149,0,0,-1.5115,-1.5115,0,0,0,0,0,0,0,0,-1.5144,-1.5145,-1.5145,-1.5143,-1.5141,-1.5136,-1.5148,-1.5155,-1.5117,-1.5125,-1.5113,-1.5111,-1.5119,-1.512,-1.5122,-1.5149,-1.5149,-1.5115,-1.5116,-1.5116,-1.5117,0,0,0,0,0,0,0,-1.5143,-1.5145,-1.5161,-1.5145,-1.5143,-1.5133,-1.5132,-1.5149,-1.5131,-1.5125,-1.5122,-1.5121,-1.5118,-1.5121,-1.5122,-1.5149,-1.5115,-1.5116,-1.5117,-1.5117,-1.5209,-1.5211,0,0,0,0,0,0,-1.5146,-1.5145,-1.5161,-1.5161,-1.5139,-1.5135,-1.5134,-1.5139,-1.5131,-1.5128,-1.5123,-1.512,-1.5119,-1.512,-1.5121,-1.5166,-1.5116,-1.5117,-1.5118,-1.5207,-1.5209,-1.5211,0,0,0,0,0,0,-1.5146,-1.5148,-1.5161,-1.5152,-1.5153,-1.5137,-1.5144,-1.514,-1.5143,-1.5129,-1.5126,-1.5129,-1.5118,-1.512,-1.5143,-1.5166,-1.5118,-1.5119,-1.5205,-1.5208,-1.521,-1.5257,0,0,0,0,0,0,-1.5145,-1.5148,-1.5162,-1.5153,-1.5154,-1.5182,-1.5145,-1.5141,-1.5145,-1.5141,-1.5134,-1.5132,-1.5117,-1.5141,-1.5144,-1.5167,-1.512,-1.5203,-1.5207,-1.5209,-1.5253,-1.5261,-1.5267,0,0,0,0,0,-1.5144,-1.5175,-1.5162,-1.5165,-1.517,-1.5184,-1.5184,-1.5167,-1.5147,-1.5161,-1.5153,-1.5132,-1.5163,-1.5144,-1.5147,-1.517,-1.5202,-1.5206,-1.5209,-1.525,-1.5259,-1.5267,0,0,0,0,0,0,-1.5187,-1.5173,-1.5159,-1.5188,-1.5187,-1.5177,-1.5194,-1.5177,-1.5182,-1.5178,-1.5156,-1.5155,-1.5182,-1.5178,-1.5158,-1.5208,-1.5179,-1.5183,-1.5209,-1.5217,-1.5224,-1.5224,-1.5121,0,0,0,0,0,-1.5199,-1.5211,-1.5199,-1.5225,-1.5225,-1.521,-1.5215,-1.5202,-1.52,-1.52,-1.5193,-1.5194,-1.5203,-1.521,-1.5218,-1.5253,-1.5251,-1.527,-1.5277,-1.5283,-1.5287,-1.5306,-1.5315,-1.5224,-1.5224,-1.5224,0,0,-1.5226,-1.522,-1.5228,-1.5233,-1.5231,-1.5245,-1.521,-1.5225,-1.5235,-1.5202,-1.5224,-1.522,-1.5218,-1.5248,-1.526,-1.5246,-1.5312,-1.5288,-1.5292,-1.5293,-1.5311,-1.532,-1.5327,-1.5226,-1.5226,-1.5225,0,0,-1.528,-1.5276,-1.5298,-1.5297,-1.5295,-1.5285,-1.529,-1.5283,-1.5279,-1.53,-1.5277,-1.5289,-1.5306,-1.5306,-1.5309,-1.5366,-1.5347,-1.5369,-1.5405,-1.5424,-1.5431,-1.5437,-1.5458,-1.5466,-1.5373,-1.5373,-1.5373,0,-1.5313,-1.5331,-1.5312,-1.5329,-1.5332,-1.5304,-1.5327,-1.5327,-1.5328,-1.5331,-1.5315,-1.5337,-1.5334,-1.5363,-1.5377,-1.538,-1.5386,-1.5369,-1.5431,-1.5437,-1.5443,-1.5463,-1.5471,-1.5376,-1.5376,-1.5375,-1.5375,0,-1.5372,-1.5385,-1.5403,-1.5405,-1.541,-1.543,-1.5415,-1.5423,-1.541,-1.5402,-1.5425,-1.5421,-1.5429,-1.5435,-1.5422,-1.5463,-1.5454,-1.5435,-1.5405,-1.5455,-1.5473,-1.548,-1.538,-1.5379,-1.5378,-1.5377,0,0,-1.5451,-1.5443,-1.545,-1.5451,-1.5447,-1.5457,-1.5477,-1.5484,-1.5492,-1.5494,-1.551,-1.5527,-1.5509,-1.5512,-1.5499,-1.5516,-1.5562,-1.5495,-1.5494,-1.5508,-1.5609,-1.5623,-1.5632,-1.555,-1.5552,-1.5553,-1.5609,0,-1.5503,-1.5535,-1.5519,-1.5553,-1.5566,-1.554,-1.5558,-1.5558,-1.5551,-1.5562,-1.5555,-1.5567,-1.5543,-1.5545,-1.556,-1.5553,-1.5582,-1.5549,-1.5566,-1.5567,-1.5567,-1.5641,-1.5656,-1.5709,-1.5616,-1.5617,-1.5618,0,-1.5568,-1.5573,-1.5608,-1.5604,-1.5609,-1.5624,-1.563,-1.5641,-1.5641,-1.5635,-1.564,-1.5624,-1.5644,-1.5615,-1.5643,-1.562,-1.5627,-1.5625,-1.5626,-1.5627,-1.5595,-1.5644,-1.5725,-1.5733,-1.5629,-1.5628,-1.5627,0,-1.5622,-1.5638,-1.5662,-1.5663,-1.5659,-1.567,-1.5669,-1.5668,-1.5674,-1.568,-1.5684,-1.5692,-1.5697,-1.5704,-1.5691,-1.5672,-1.5721,-1.5691,-1.5717,-1.5718,-1.5728,-1.5728,-1.5812,-1.5733,-1.5733,-1.5733,-1.5732,0,-1.5682,-1.5704,-1.5686,-1.57,-1.5726,-1.5709,-1.5734,-1.573,-1.573,-1.5744,-1.5723,-1.5737,-1.5719,-1.5732,-1.5722,-1.5747,-1.5749,-1.5745,-1.5743,-1.5747,-1.5748,-1.575,-1.5746,-1.5735,-1.5734,-1.5734,-1.5733,0,-1.5746,-1.5735,-1.5759,-1.5753,-1.5752,-1.5771,-1.5767,-1.578,-1.5773,-1.5791,-1.5795,-1.5784,-1.5798,-1.5786,-1.5799,-1.5793,-1.5826,-1.5818,-1.5825,-1.5823,-1.585,-1.5848,-1.5939,-1.595,-1.5864,-1.5865,-1.5866,0,-1.5784,-1.5801,-1.5798,-1.5806,-1.5806,-1.5819,-1.5825,-1.581,-1.5817,-1.582,-1.5834,-1.5846,-1.5855,-1.5878,-1.5872,-1.5882,-1.5874,-1.5906,-1.5876,-1.588,-1.5875,-1.5874,-1.5876,-1.5911,-1.5913,-1.5913,-1.5914,0,-1.5854,-1.5848,-1.5858,-1.5866,-1.5875,-1.588,-1.5885,-1.5893,-1.5877,-1.5887,-1.5901,-1.5908,-1.5922,-1.5934,-1.5943,-1.5942,-1.5926,-1.5924,-1.593,-1.5935,-1.5939,-1.5938,-1.5842,-1.5921,-1.5921,-1.592,-1.592,-1.5919,-1.5906,-1.5921,-1.5921,-1.5933,-1.5935,-1.594,-1.5953,-1.5948,-1.596,-1.597,-1.596,-1.5978,-1.598,-1.599,-1.5991,-1.6005,-1.5992,-1.6002,-1.6004,-1.6007,-1.6011,-1.5937,-1.6007,-1.6007,-1.6006,-1.6006,-1.6006,0,-1.5975,-1.5974,-1.5986,-1.5993,-1.6003,-1.5987,-1.5992,-1.6001,-1.6017,-1.602,-1.6029,-1.6046,-1.6059,-1.6054,-1.6066,-1.6078,-1.6071,-1.6081,-1.608,-1.6081,-1.6022,-1.6015,-1.6087,-1.6087,-1.6087,-1.6087,-1.6087,-1.6087,-1.6012,-1.6036,-1.603,-1.6056,-1.6055,-1.6072,-1.6076,-1.6081,-1.6083,-1.6103,-1.6114,-1.6111,-1.6112,-1.6123,-1.6135,-1.6133,-1.6139,-1.6152,-1.6148,-1.6093,-1.6085,-1.6077,-1.607,-1.6153,-1.6153,-1.6206,-1.6206,-1.6207]},{"header":{"parameterUnit":"m.s-1","parameterCategory":1,"la1":30.2991,"la2":30.254,"lo1":-89.0895,"lo2":-89.0444,"dy":0.0017,"dx":0.0017,"nx":28,"ny":28,"refTime":"2025-07-24T09:00:00:Z","depth":0,"parameterNumber":3,"parameterNumberName":"V-component_of_WINDS"},"data":[0,0,0,0,0,0,0,0,0,0,0,0,0,0,0,0,0,0,0,0,0,0,0,0,0,0,0,0,0,0,0,0,0,0,0,0,0,0,0,0,0,0,0,0,0,0,0,0,0,0,0,0,0,0,0,0,0,0,1.8955,1.8956,0,1.9043,1.9044,1.9045,1.9107,1.9107,1.9108,1.9108,1.9195,1.9197,1.9198,0,0,0,0,0,0,0,0,0,0,0,0,0,1.8834,1.8836,1.8955,1.8956,1.8957,1.9043,1.9044,1.9046,1.9107,1.9107,1.9108,1.9108,1.9194,1.9196,1.9199,0,0,0,0,0,0,0,0,0,0,0,0,0,1.8901,1.8837,1.8955,1.8998,1.9003,1.9043,1.9044,1.9046,1.9107,1.9107,1.9108,1.9109,1.9193,1.9196,1.9199,1.9202,0,0,1.9208,1.9209,0,0,0,0,0,0,0,0,1.8897,1.8905,1.8991,1.8995,1.9001,1.9065,1.9034,1.9098,1.9106,1.9067,1.9108,1.9109,1.9151,1.9157,1.9172,1.9206,1.921,1.9208,1.9209,1.9211,1.9211,0,0,0,0,0,0,0,1.8892,1.8902,1.899,1.8992,1.8998,1.9012,1.9022,1.9046,1.9104,1.907,1.9075,1.9085,1.9154,1.9169,1.9174,1.9211,1.9208,1.921,1.9212,1.9213,1.925,1.925,0,0,0,0,0,0,1.8882,1.8898,1.8987,1.8992,1.895,1.9013,1.9025,1.9043,1.9104,1.9114,1.9084,1.9088,1.9164,1.9171,1.9178,1.9185,1.9211,1.9213,1.9215,1.9251,1.925,1.925,0,0,0,0,0,0,1.8879,1.8889,1.8983,1.8946,1.8959,1.9015,1.9035,1.9045,1.9061,1.9114,1.9124,1.909,1.9165,1.9174,1.9196,1.9189,1.9215,1.9217,1.9252,1.9251,1.925,1.9199,0,0,0,0,0,0,1.8875,1.8888,1.889,1.8946,1.8961,1.9001,1.9035,1.9046,1.9066,1.9071,1.9122,1.9131,1.9166,1.9191,1.9198,1.9193,1.9219,1.9253,1.9251,1.925,1.9201,1.9196,1.9192,0,0,0,0,0,1.887,1.8872,1.889,1.8901,1.8966,1.9,1.9009,1.905,1.9065,1.9067,1.9102,1.913,1.9188,1.9193,1.9201,1.9197,1.9253,1.9252,1.925,1.9203,1.9197,1.9192,0,0,0,0,0,0,1.8813,1.888,1.8901,1.8921,1.8955,1.9011,1.9016,1.9042,1.9072,1.9075,1.9124,1.9135,1.9151,1.9176,1.918,1.9202,1.9224,1.9224,1.9185,1.918,1.9175,1.9169,1.9222,0,0,0,0,0,1.8803,1.8827,1.8883,1.8895,1.8911,1.896,1.8977,1.9005,1.9042,1.9056,1.9092,1.9125,1.9151,1.9167,1.9193,1.9205,1.9216,1.9206,1.9201,1.9197,1.9196,1.9203,1.9199,1.9244,1.9245,1.9245,0,0,1.8782,1.8821,1.8833,1.8885,1.8914,1.8936,1.8972,1.8994,1.901,1.9059,1.9082,1.9109,1.9149,1.9165,1.9174,1.9187,1.9186,1.9195,1.9191,1.9193,1.9201,1.9197,1.9193,1.9243,1.9244,1.9244,0,0,1.8755,1.8788,1.8801,1.883,1.8874,1.8907,1.8909,1.8962,1.8982,1.9006,1.9043,1.9062,1.9105,1.9132,1.9151,1.9132,1.9159,1.914,1.9114,1.9121,1.9117,1.9114,1.9106,1.9103,1.9139,1.9139,1.9139,0,1.8723,1.8759,1.8804,1.8824,1.8845,1.8891,1.8903,1.8929,1.8979,1.8991,1.9005,1.906,1.909,1.9113,1.9108,1.9122,1.9126,1.9134,1.9114,1.9112,1.9109,1.9103,1.91,1.9136,1.9136,1.9137,1.9137,0,1.8717,1.8741,1.8747,1.8795,1.8816,1.8832,1.8878,1.8894,1.892,1.895,1.8973,1.901,1.9045,1.9053,1.9078,1.9078,1.9085,1.9105,1.9128,1.9102,1.9096,1.9094,1.9132,1.9133,1.9134,1.9135,0,0,1.8658,1.8731,1.8732,1.8754,1.8805,1.8824,1.8841,1.8876,1.8888,1.8921,1.8935,1.8971,1.899,1.9011,1.904,1.9045,1.9027,1.9065,1.9067,1.9056,1.9028,1.9012,1.9009,1.9045,1.9044,1.9044,1.9025,0,1.8639,1.8674,1.8714,1.8735,1.8757,1.88,1.8814,1.8847,1.8875,1.8896,1.8927,1.8951,1.8975,1.8988,1.8995,1.9028,1.9022,1.903,1.9057,1.9058,1.9046,1.9006,1.899,1.897,1.9023,1.9022,1.9022,0,1.8622,1.8653,1.8676,1.8725,1.8736,1.8748,1.8783,1.8803,1.884,1.886,1.8883,1.8914,1.8932,1.8952,1.8977,1.8982,1.8995,1.9012,1.9013,1.9017,1.9038,1.9009,1.8964,1.8961,1.902,1.902,1.902,0,1.8576,1.8624,1.8644,1.8661,1.8718,1.8726,1.875,1.8787,1.8805,1.8835,1.8846,1.8877,1.8893,1.8916,1.8953,1.8964,1.8973,1.8997,1.8989,1.8988,1.899,1.8989,1.8946,1.8998,1.8998,1.8998,1.8998,0,1.8551,1.8563,1.8624,1.8636,1.865,1.8694,1.8707,1.8734,1.8767,1.8784,1.8822,1.8837,1.8885,1.8905,1.8934,1.895,1.8957,1.8972,1.898,1.8969,1.8967,1.8979,1.8981,1.8998,1.8998,1.8998,1.8998,0,1.8503,1.8544,1.8568,1.862,1.8633,1.8641,1.8685,1.8697,1.8727,1.8748,1.8755,1.8802,1.8827,1.8866,1.8903,1.8922,1.8932,1.8945,1.892,1.8925,1.8915,1.8915,1.8878,1.8875,1.8929,1.8928,1.8928,0,1.8484,1.8495,1.8548,1.8562,1.8585,1.8608,1.8627,1.867,1.8687,1.8729,1.8735,1.8764,1.8789,1.8826,1.8862,1.889,1.8903,1.8888,1.8908,1.8896,1.8902,1.8901,1.8902,1.8884,1.8883,1.8882,1.8882,0,1.8447,1.8466,1.8492,1.8525,1.8546,1.8573,1.8602,1.8611,1.8661,1.8678,1.8705,1.8724,1.8761,1.8788,1.882,1.8843,1.887,1.8875,1.8875,1.8864,1.8849,1.8856,1.8908,1.8876,1.8877,1.8877,1.8878,1.8878,1.8413,1.8424,1.8462,1.8489,1.8516,1.8542,1.8556,1.8587,1.861,1.8645,1.8668,1.8693,1.8727,1.8774,1.8795,1.8813,1.8825,1.8825,1.8825,1.8824,1.882,1.8846,1.8819,1.882,1.882,1.882,1.882,0,1.8377,1.8404,1.8428,1.8468,1.8488,1.8513,1.8546,1.8561,1.8583,1.8613,1.8637,1.8666,1.8692,1.8729,1.8757,1.8765,1.8778,1.8771,1.8771,1.8775,1.8808,1.8805,1.876,1.876,1.876,1.876,1.876,1.876,1.8361,1.8381,1.8404,1.8436,1.8462,1.8488,1.8504,1.8527,1.8552,1.8583,1.8605,1.863,1.8662,1.8693,1.8717,1.8727,1.8735,1.8724,1.8738,1.8767,1.8773,1.8778,1.8776,1.8725,1.8725,1.8704,1.8703,1.8703]}]]